User: anonymous   Login
Location: Unspecified
(0.0000°N, 0.0000°E)
Time: 01:14:32
(UTC+00:00)
Language:

LO-87 - Orbit

View from above orbital plane
View from above orbital plane
View from above satellite
View from above satellite

Ground track
Ground track

The orbit data is extracted from the following two-line orbital elements,

1 41557U 16033B   18016.31444983  .00001187  00000-0  46239-4 0  9992
2 41557  97.4480 100.7656 0013260 341.0911  18.9834 15.27915231 90965
Epoch (UTC): 16 January 2018 07:32:48
Eccentricity: 0.0013260
inclination: 97.4480°
perigee height: 473 km
apogee height: 491 km
right ascension of ascending node: 100.7656°
argument of perigee: 341.0911°
revolutions per day: 15.27915231
mean anomaly at epoch: 18.9834°
orbit number at epoch: 9096

The dashed part of the orbit path shows where the satellite is in the earth's shadow,  

DLR